Location: Newark
(37.8333°N, 119.5000°W)
Time: 18:07:30
(UTC+00:00)

Tiros 1 despin weight - Pass Details

Date: 22 August 2019
Orbit: 594 x 643 km, 48.2° (Epoch: 14 October)

Event Time Altitude Azimuth Distance (km) Brightness Sun altitude
Rises 10:03:59 0° 290° (WNW) 2,853 - -32.6°
Reaches altitude 10° 10:06:43 10° 306° (NW) 1,959 - -32.3°
Exits shadow 10:10:08 22° 356° (N) 1,361 ? -31.9°
Maximum altitude 10:10:13 22° 358° (N) 1,361 ? -31.9°
Drops below altitude 10° 10:13:45 10° 49° (NE) 1,985 ? -31.4°
Sets 10:16:33 0° 65° (ENE) 2,901 ? -31.1°
